Regional Weather Roundup
Issued by NWS San Angelo, TX

Home | Current Version | Previous Version | Text Only | Print | Product List | Glossary Off
Versions: 1 2 3 4 5 6 7 8 9 10 11 12 13 14 15 16 17 18 19 20 21 22 23 24 25 26 27 28 29 30 31 32 33 34 35 36 37 38 39 40 41 42 43 44 45 46 47 48 49 50

000
ASUS44 KSJT 270402
RWRSJT
WEST CENTRAL TEXAS REGIONAL WEATHER ROUNDUP
NATIONAL WEATHER SERVICE SAN ANGELO TX
1100 PM CDT SUN APR 26 2015

NOTE: "FAIR" INDICATES FEW OR NO CLOUDS BELOW 12,000 FEET WITH NO
SIGNIFICANT WEATHER AND/OR OBSTRUCTIONS TO VISIBILITY.

TXZ049-054-064>066-071>073-076>078-098-099-113-114-127-128-139-140-
154-155-168>170-270500
...LOCATIONS ACROSS WEST CENTRAL TEXAS...

CITY           SKY/WX    TMP DP  RH WIND       PRES   REMARKS
SAN ANGELO     MOCLDY    74  42  31 NW22G30   29.65R
ABILENE        PTCLDY    63  52  67 N10       29.67R
DYESS AFB      FAIR      62  55  78 N12       29.69R
JUNCTION       TSTM      61  55  81 NW18G31   29.61R
SWEETWATER     CLOUDY    60  55  81 NW16      29.79R
BROWNWOOD      NOT AVBL
COLEMAN        NOT AVBL
SONORA         NOT AVBL
OZONA          NOT AVBL
BRADY          NOT AVBL
$$

TEXAS PANHANDLE/OKLAHOMA PANHANDLE

CITY           SKY/WX    TMP DP  RH WIND       PRES   REMARKS
AMARILLO       CLOUDY    49  48  97 NE20      29.83F
BORGER         CLOUDY    51  49  92 NE16G25   29.86S
CANADIAN       LGT RAIN  54  53  97 E10       29.89S
DALHART        CLOUDY    48  44  86 E18       29.87R
DUMAS          CLOUDY    47  46  97 NE15      29.86S
GUYMON         NOT AVBL
HEREFORD       NOT AVBL
PAMPA          NOT AVBL
PERRYTON       NOT AVBL
$$

SOUTHERN PANHANDLE/SOUTH PLAINS/ROLLING PLAINS

CITY           SKY/WX    TMP DP  RH WIND       PRES   REMARKS
LUBBOCK        LGT RAIN  54  51  90 NE5       29.83R
SNYDER         NOT AVBL
CHILDRESS      MOCLDY    56  52  86 NE21G29   29.73F
SEMINOLE       NOT AVBL
$$

PERMIAN BASIN

CITY           SKY/WX    TMP DP  RH WIND       PRES   REMARKS
MIDLAND        CLOUDY    65  32  29 NW10      29.76R
ODESSA         CLOUDY    63  29  27 NW10      29.76R
WINK           PTCLDY    60  31  33 W7        29.74R
$$

FAR WEST/SOUTHWEST MOUNTAINS/TRANS PECOS

CITY           SKY/WX    TMP DP  RH WIND       PRES   REMARKS
ALPINE         NOT AVBL
DRYDEN           N/A     74  26  16 N16G29    29.70R
EL PASO        PTCLDY    58  34  40 W22G37    29.84R
FORT STOCKTON  PTCLDY    63  29  27 NW13      29.78R
GUADALUPE PASS NOT AVBL
MARFA          PTCLDY    54  28  37 NE3       29.87R
PECOS          NOT AVBL
$$

DALLAS/FORT WORTH METROPLEX

CITY           SKY/WX    TMP DP  RH WIND       PRES   REMARKS
DFW AIRPORT    TSTM      75  64  68 NE14G28   29.66R
FTW MEACHAM    TSTM      72  65  78 NE13      29.63S
DAL-EXECUTIVE  CLOUDY    75  65  70 NE9       29.63R HAZE
GRAND PRAIRIE  CLOUDY    75  66  73 NE3       29.64R
ADDISON        NOT AVBL
MESQUITE       CLOUDY    74  64  69 E9G18     29.63R
LANCASTER      CLOUDY    75  64  70 E9G20     29.62R
$$

NORTH CENTRAL TEXAS

CITY           SKY/WX    TMP DP  RH WIND       PRES   REMARKS
SHRMAN/DENISON RAIN      73  70  91 SE5       29.73R
GAINESVILLE    NOT AVBL
BRIDGEPORT     CLOUDY    65  60  82 E12       29.65F
DENTON         TSTM      70  58  65 NE10G26   29.66F
WAXAHACHIE     LGT RAIN  73  68  82 E3        29.61R
GRANBURY       TSTM      68  65  91 CALM      29.69R
$$

WESTERN NORTH TEXAS

CITY           SKY/WX    TMP DP  RH WIND       PRES   REMARKS
WICHITA FALLS  PTCLDY    60  56  86 NE7       29.68R
VERNON         NOT AVBL
BRECKENRIDGE   MOCLDY    64  57  78 E16       29.62R
COMANCHE       TSTM      63  61  92 NW24G36   29.65R
$$

CENTRAL AND SOUTH CENTRAL TEXAS

CITY           SKY/WX    TMP DP  RH WIND       PRES   REMARKS
AUSTIN/BERGSTM MOCLDY    72  66  81 SE12      29.55F
WACO           PTCLDY    75  69  81 SE14G28   29.54R
HILLSBORO      NOT AVBL
TEMPLE         PTCLDY    73  61  64 SE18      29.54S
KILLEEN-GRAY   MOCLDY    73  64  73 S18G29    29.55R
FORT HOOD      PTCLDY    74  65  71 S17G23    29.54R
GEORGETOWN     CLOUDY    73  61  64 S12G18    29.56F
LAGO VISTA     CLOUDY    74  66  76 SE9       29.59S
SAN MARCOS     CLOUDY    72  66  83 SE13      29.56F
NEW BRAUNFELS  CLOUDY    73  70  90 SE15      29.54F FOG
RANDOLPH AFB   CLOUDY    74  74  99 SE13      29.53F
SAN ANTONIO    CLOUDY    78  73  84 SE18G26   29.53F
STINSON        CLOUDY    77  74  90 SE16G24   29.52F FOG
PLEASANTON     NOT AVBL
LA GRANGE      NOT AVBL
GIDDINGS       MOCLDY    72  66  83 SE8       29.60F
$$

EAST TEXAS

CITY           SKY/WX    TMP DP  RH WIND       PRES   REMARKS
PARIS          CLOUDY    72  59  64 MISG      29.73R
CLARKSVILLE    NOT AVBL
TYLER          MOCLDY    75  65  70 E10       29.66F
LONGVIEW       MOCLDY    74  65  73 E6        29.67S
PALESTINE      CLEAR     73  69  88 E8        29.64F
NACOGDOCHES    CLEAR     72  66  83 E8        29.68R
$$

TEXAS HILL COUNTRY AND EDWARDS PLATEAU

CITY           SKY/WX    TMP DP  RH WIND       PRES   REMARKS
LLANO          NOT AVBL
HORSESHOE BAY  MOCLDY    76  71  85 SE9       29.57R
KERRVILLE      NOT AVBL
FREDERICKSBRG  NOT AVBL
ROCKSPRINGS    NOT AVBL
HONDO          MOCLDY    76  73  91 SE16G24   29.55F
UVALDE         PTCLDY    76  73  92 SE10      29.51F FOG
DEL RIO        MOCLDY    75  48  38 N28G41    29.55R
$$

SOUTHEAST TEXAS

CITY           SKY/WX    TMP DP  RH WIND       PRES   REMARKS
COLLEGE STN    PTCLDY    73  66  78 SE12      29.58F
CALDWELL       NOT AVBL
CROCKETT       NOT AVBL
BRENHAM        PTCLDY    73  64  75 SE9       29.59F
HUNTSVILLE     PTCLDY    74  70  87 E5        29.62S
CONROE         PTCLDY    72  70  93 E6        29.63S FOG
HOUSTON BUSH   MOCLDY    75  72  90 E9        29.61F
HOUSTON HOBBY  MOCLDY    75  71  87 SE6       29.60F
PERLAND        CLOUDY    76  72  87 SE10      29.61F
WHARTON        NOT AVBL
$$

THE UPPER TEXAS COAST

CITY           SKY/WX    TMP DP  RH WIND       PRES   REMARKS
ORANGE         CLOUDY    76  72  86 E5        29.68S FOG
PORT ARTHUR    CLOUDY    75  73  93 E6        29.65F FOG
GALVESTON      CLOUDY    75  73  93 SE14      29.63F
ANGLETON       CLOUDY    74  72  93 SE8       29.61S
BAY CITY       NOT AVBL
$$

TEXAS COASTAL BEND, RIO GRANDE PLAINS DEEP SOUTH TEXAS

CITY           SKY/WX    TMP DP  RH WIND       PRES   REMARKS
VICTORIA       CLOUDY    75  75 100 SE9       29.58F FOG
BEEVILLE       CLOUDY    78  78 100 SE10      29.57S FOG
ROCKPORT       CLOUDY    78  75  90 SE14      29.57S FOG
PORT ARANSAS   CLOUDY    76  75  98 SE12      29.57F FOG
PORT LAVACA    NOT AVBL
CORPUS CHRISTI CLOUDY    78  76  93 SE10      29.57S FOG
KINGSVILLE NAS CLOUDY    79  79 100 SE9       29.56S FOG
COTULLA        MOCLDY    79  73  82 SE15      29.51F HAZE
LAREDO         MOCLDY    82  75  79 SE13      29.52F
BROWNSVILLE    CLOUDY    80  78  94 SE5       29.57S FOG
PORT ISABEL    CLOUDY    80  77  90 SE14      29.54F FOG
HEBBRONVILLE   NOT AVBL
MCALLEN        MOCLDY    82  77  84 SE8       29.55R HAZE
WESLACO        NOT AVBL
FALFURRIAS       N/A     79  77  92 SE6       29.53F
EDINBURG       CLOUDY    82  77  85 CALM      29.56R HAZE
$$


USA.gov is the U.S. government's official web portal to all federal, state and local government web resources and services.